Location: Hawks Ness
(60.2333°N, 1.1667°W)
Time: 01:08:55
(UTC+00:00)

Cosmos 407 Rocket - Pass Details

Date: 22 October 2019
Orbit: 744 x 786 km, 74.1° (Epoch: 13 November)

Event Time Altitude Azimuth Distance (km) Brightness Sun altitude
Exits shadow 05:03:46 13° 221° (SW) 2,070 5.3 -15.1°
Maximum altitude 05:08:23 74° 305° (NW) 783 3.4 -14.6°
Drops below altitude 10° 05:13:33 10° 31° (NNE) 2,275 6.4 -13.9°
Sets 05:15:55 0° 34° (NE) 3,205 7.3 -13.6°
